Hourly Data Report for October 28, 2015

All times are specified in Local Standard Time (LST). Add 1 hour to adjust for Daylight Saving Time where and when it is observed.

KUGAARUK CLIMATE
NUNAVUT

68°32'15.060" N
89°47'47.020" W
15.80 m
2303094
71407
NBB

Download Data

Hourly Data (October 2015)
Hourly Data Report for October 28, 2015
Temp Definition
°C
Dew Point Temp Definition
°C
Rel Hum Definition
%
Wind Dir Definition
10's deg

Wind Spd Definition
km/h
Visibility Definition
km
Stn Press Definition
kPa
Hmdx Definition


Wind Chill Definition


Weather Definition


TIME
00:00 -17.4 -20.0 80 24 16   100.99   -26 LegendNANA
01:00 -18.1 -20.5 81 25 11   100.99   -25 LegendNANA
02:00 -17.1 -19.3 83 19 8   101.02   -23 LegendNANA
03:00 -16.7 -19.1 82 24 9   101.02   -23 LegendNANA
04:00 -16.2 -18.2 85 25 17   101.01   -25 LegendNANA
05:00 -17.2 -19.5 82 24 11   101.01   -24 LegendNANA
06:00 -16.8 -19.1 82 22 21   101.02   -27 LegendNANA
07:00 -17.3 -20.0 79 22 24   101.04   -28 LegendNANA
08:00 -16.8 -19.3 81 23 13   101.03   -25 LegendNANA
09:00 -17.2 -19.9 79 25 13   100.99   -25 LegendNANA
10:00 -17.3 -20.1 78 23 14   101.00   -25 LegendNANA
11:00 -16.9 -19.6 80 25 16   101.00   -26 LegendNANA
12:00 -16.8 -19.6 79 25 20   101.01   -26 LegendNANA
13:00 -16.3 -19.0 80 25 14   101.00   -24 LegendNANA
14:00 -16.7 -19.2 81 26 15   101.01   -25 LegendNANA
15:00 -16.2 -18.9 79 25 15   101.02   -24 LegendNANA
16:00 -15.8 -18.5 80 27 15   101.01   -24 LegendNANA
17:00 -16.2 -18.8 80 27 13   100.99   -24 LegendNANA
18:00 -17.9 -20.3 81 0 1   101.01   -19 LegendNANA
19:00 -19.2 -21.6 81 6 3   101.02   -22 LegendNANA
20:00 -19.3 -21.4 83 12 1   100.99   -20 LegendNANA
21:00 -18.9 -21.0 84   0   100.97     LegendNANA
22:00 -19.0 -21.1 83 11 1   100.98   -20 LegendNANA
23:00 -19.2 -21.2 84 36 1   101.00   -20 LegendNANA

Notes on Data Quality.

Legend

  • E = Estimated
  • M = Missing
  • NA = Not Available
  • ‡ = Partner data that is not subject to review by the National Climate Archives
Date modified: